Helicity
56 102 123 168 144 105 71 87 83 68 58 47 40 42 45 46 55 59 36 23 54 75 20 10 21 35 37 52 96 96 81 55 41 36 38 39 26 26 31 37 46 52 48
84 106 135 141 120 91 80 83 84 76 65 43 41 43 56 46 54 63 39 54 56 46 14 18 31 27 58 77 84 85 76 19 51 41 38 33 38 32 40 40 40 48 61
99 89 109 113 96 88 97 102 110 101 94 67 48 57 67 73 53 70 50 57 48 57 16 10 23 26 43 91 81 89 87 72 37 39 40 42 41 38 42 50 52 55 59
99 87 102 90 96 92 96 111 112 118 105 78 77 72 81 91 83 69 61 65 91 75 34 -3 10 -2 44 49 62 62 71 74 31 46 47 44 46 44 41 46 59 56 60
96 116 107 108 106 106 101 118 134 121 115 107 107 105 91 99 100 85 70 64 75 71 51 -4 6 16 40 35 57 53 51 67 60 46 45 57 57 49 47 44 51 54 65
90 131 124 123 117 114 122 129 129 142 121 125 135 134 109 96 104 100 88 74 68 82 64 51 36 19 34 46 80 49 26 52 49 48 51 53 60 64 53 54 60 63 65
111 114 103 116 113 109 108 129 169 149 173 146 157 151 125 104 94 94 92 78 90 103 68 53 77 45 24 64 86 33 26 33 29 38 43 53 56 69 64 65 62 70 69
138 117 119 95 96 119 123 144 176 210 187 159 156 126 115 88 90 88 97 105 94 112 117 84 80 84 69 47 58 48 34 7 9 22 38 42 62 72 78 80 64 62 70
167 130 118 117 89 95 119 129 151 172 192 162 160 136 134 94 99 91 100 112 98 100 88 97 113 122 114 113 94 66 35 18 -3 23 30 37 56 73 92 99 82 70 66
188 194 182 129 100 113 113 129 138 159 187 168 169 169 146 104 104 98 92 89 77 90 73 113 77 87 123 132 111 104 51 35 -10 4 26 39 55 71 78 98 89 82 69
160 160 165 156 160 149 143 141 142 146 144 165 179 191 155 148 140 112 117 95 89 87 107 101 103 153 153 140 176 150 106 62 -6 -13 15 47 46 63 77 87 82 87 80
187 140 149 169 173 160 137 148 170 131 134 140 159 164 184 175 143 136 121 105 99 99 101 98 77 101 150 156 234 149 131 101 19 -6 6 44 53 73 75 71 89 100 80
158 148 182 183 176 130 165 178 188 155 156 149 136 152 168 178 173 147 130 119 97 109 120 78 79 89 109 115 121 108 142 116 74 9 3 33 62 79 90 71 84 103 83
172 173 201 176 174 181 207 189 168 123 166 153 156 148 159 169 195 188 156 152 124 97 101 101 98 113 106 128 153 105 180 117 93 69 30 32 67 135 178 98 100 106 82
184 172 196 199 185 172 147 201 202 194 174 147 168 182 188 172 195 191 201 166 122 110 91 94 105 110 124 145 137 153 164 152 122 108 62 67 98 138 212 175 126 142 120
156 159 153 155 158 173 163 173 187 180 167 162 179 168 154 219 188 206 212 193 173 122 94 82 89 99 105 116 130 149 149 164 142 119 98 99 123 160 217 202 162 170 155
145 150 145 148 159 176 195 186 157 186 164 157 199 208 164 189 234 228 232 223 214 215 126 95 123 119 105 96 106 115 123 146 150 142 137 128 151 175 235 229 193 172 173
139 157 141 148 160 160 159 126 153 170 183 175 179 165 173 238 177 207 245 237 223 211 183 109 133 141 123 101 106 99 117 137 135 153 139 140 151 181 228 236 214 196 192
141 160 165 158 151 150 160 159 155 158 155 153 190 206 171 188 199 228 229 222 204 200 189 183 143 170 169 161 135 128 128 125 139 141 134 142 155 187 220 217 205 203 204
168 160 144 146 150 152 163 156 158 163 170 164 210 204 207 245 185 225 214 225 236 212 220 186 178 188 176 184 178 140 118 128 132 152 163 170 186 209 215 203 230 241 222
149 147 159 156 156 163 185 184 196 206 227 211 204 178 217 174 175 184 226 224 246 261 283 276 258 240 234 211 201 173 155 154 153 172 195 216 252 261 271 271 299 224 162
174 160 144 144 141 143 118 119 153 172 183 157 188 189 194 187 136 127 166 224 309 287 270 312 276 232 181 192 209 198 200 196 176 161 197 206 279 299 354 350 229 179 123
163 130 129 136 138 130 98 121 127 193 184 190 166 228 199 197 168 159 155 277 285 281 295 281 297 243 204 202 164 180 206 209 209 188 222 230 315 268 291 240 183 151 111
239 199 172 130 134 144 97 95 115 145 148 159 182 194 200 205 169 169 188 206 252 337 301 240 165 115 117 138 182 191 232 255 259 235 252 259 205 205 208 193 148 128 125
346 297 287 267 226 197 87 87 112 154 144 118 110 129 130 135 160 171 183 178 197 122 128 107 124 126 108 149 203 298 266 314 249 262 244 208 181 208 189 203 231 200 141
497 404 426 381 328 278 188 81 88 116 133 126 141 114 49 74 83 73 119 129 116 117 208 217 153 126 152 144 168 196 262 230 285 143 159 227 216 193 184 200 169 150 115
Wind_Speed
20 20 16 12 10 8 8 8 9 7 8 9 12 14 12 14 16 14 15 22 18 11 12 14 15 16 19 24 30 32 37 37 39 41 44 47 48 50 51 51 51 51 51
20 22 17 13 12 12 12 10 11 9 8 10 11 12 13 12 12 11 11 11 10 8 9 12 11 11 13 20 23 28 34 34 33 36 40 42 44 46 47 48 49 50 50
19 21 21 19 18 17 14 13 14 13 9 11 12 12 13 12 9 8 8 7 7 8 11 12 10 7 9 13 17 22 27 29 29 31 34 37 40 41 43 44 46 46 47
20 22 24 23 20 18 17 14 14 13 12 12 12 13 14 15 13 10 7 6 8 12 15 14 11 7 4 9 12 16 23 26 26 27 30 32 36 38 39 40 42 43 44
23 24 25 23 20 19 17 15 17 14 12 13 14 15 16 16 17 15 9 6 9 14 17 16 10 8 11 9 7 14 21 21 23 23 26 28 31 34 36 37 39 40 41
28 28 28 24 22 21 19 18 16 18 16 12 13 16 19 19 21 19 17 14 14 16 18 18 16 15 13 2 7 15 19 18 19 21 23 25 27 30 32 34 36 38 39
31 28 30 26 24 22 18 17 18 16 19 15 13 20 24 24 24 26 25 24 21 21 20 21 19 21 16 11 10 15 19 18 18 20 20 22 24 27 29 32 33 35 37
31 29 29 29 27 24 21 20 19 20 23 18 20 21 25 29 30 30 31 29 27 27 24 22 20 24 21 17 16 15 17 18 18 20 21 21 22 24 27 30 31 33 35
31 29 28 28 29 26 23 22 21 20 21 23 23 24 29 33 30 30 29 29 30 26 26 27 28 27 25 27 21 20 21 19 21 22 23 23 23 23 24 27 29 32 34
38 36 33 30 28 29 26 24 23 23 22 22 26 30 31 30 28 32 31 30 31 29 29 32 31 30 30 27 27 24 25 24 22 26 27 27 25 24 23 25 28 30 33
43 39 36 32 30 29 26 25 24 24 25 24 25 28 31 31 30 31 30 28 34 32 32 30 32 35 34 33 30 29 25 26 28 28 27 26 27 24 26 26 27 30 33
44 42 38 37 35 32 29 27 28 29 28 29 27 28 28 30 30 31 33 31 28 33 36 36 36 34 35 39 33 31 29 28 29 29 29 24 22 21 25 27 27 30 33
45 44 39 38 35 35 33 32 33 34 32 33 32 33 32 30 32 33 35 36 34 31 33 40 36 36 37 34 38 37 34 33 30 33 33 34 32 24 25 26 28 29 33
45 44 42 41 40 39 38 35 32 32 32 32 34 35 37 36 33 33 34 33 39 40 36 37 36 38 38 40 40 37 37 34 35 35 37 38 38 32 27 31 28 30 33
47 44 43 44 43 41 39 37 38 35 35 35 35 36 35 35 33 34 35 35 38 47 45 39 37 38 40 42 42 42 41 38 38 40 43 45 45 34 30 30 34 33 36
47 47 46 45 44 43 41 40 41 40 39 38 38 38 37 38 37 36 36 38 40 42 49 41 41 44 42 42 42 42 44 43 41 41 43 46 46 35 31 33 34 35 38
46 46 45 46 44 44 43 43 43 42 43 44 42 43 42 42 43 42 40 40 42 42 47 49 44 46 47 45 45 42 45 46 47 45 47 47 45 40 34 33 34 36 37
51 48 46 47 47 45 43 44 45 46 47 47 49 47 47 46 45 42 42 43 42 42 46 49 49 47 46 47 46 48 48 47 48 47 47 47 45 40 35 35 36 37 38
53 52 52 52 51 50 48 48 49 50 50 50 49 49 51 47 47 45 44 46 44 45 46 50 52 48 48 45 46 47 52 52 51 51 51 49 44 39 36 37 36 36 36
55 54 54 57 57 56 54 54 53 53 53 52 51 49 50 49 48 45 42 42 42 43 44 46 49 51 52 49 48 48 49 47 50 51 51 50 43 40 38 37 35 39 42
54 54 55 56 55 55 55 54 54 54 53 52 49 50 47 44 40 38 39 38 37 39 42 45 49 50 52 53 53 51 51 48 46 50 52 49 47 44 41 38 40 40 38
52 51 49 49 49 51 50 49 49 50 49 51 54 50 44 38 37 37 37 37 37 40 44 45 47 47 47 52 51 53 51 53 61 44 49 55 49 50 43 41 38 35 33
48 47 45 45 47 47 45 45 45 47 46 46 43 43 44 43 41 42 39 39 38 36 40 40 44 48 55 50 48 48 50 51 56 47 40 54 49 48 41 34 29 29 30
42 43 43 43 43 45 45 43 41 42 41 42 40 39 40 41 40 38 39 39 41 42 41 43 42 47 48 51 47 50 51 49 52 49 46 56 42 39 35 36 31 30 32
35 35 33 32 34 39 38 36 32 33 35 36 34 34 36 39 38 34 35 38 41 43 42 40 44 46 44 42 37 38 45 46 51 51 40 39 36 36 38 39 33 33 31
34 33 29 30 30 32 32 30 28 30 32 34 35 35 33 33 30 29 34 35 36 39 39 40 41 39 40 36 33 39 39 45 43 39 30 29 37 37 40 38 32 31 30
Wind_Direction
258 259 264 257 259 286 310 300 308 325 339 354 359 15 14 6 9 10 25 86 87 66 55 35 33 40 58 65 70 63 64 53 55 57 63 67 70 69 70 68 63 56 50
252 254 258 259 266 281 299 289 290 300 316 336 349 354 3 1 10 8 36 58 63 37 14 8 10 36 50 68 58 56 59 51 49 53 57 60 59 63 64 64 63 61 61
247 248 252 256 269 278 284 284 283 291 302 318 333 341 345 344 346 12 10 20 38 341 330 351 348 36 55 55 42 43 49 48 40 45 50 49 53 55 56 57 58 57 57
247 246 252 257 267 278 272 268 272 281 292 308 323 330 329 327 325 317 339 342 320 312 312 320 325 312 51 5 22 33 37 48 49 37 43 44 46 49 50 51 51 52 50
249 246 251 256 261 271 268 261 269 274 284 298 310 319 323 321 316 308 307 303 303 303 304 307 309 311 312 331 26 19 22 27 38 31 37 36 37 41 41 44 45 44 44
251 250 250 251 257 264 264 260 261 275 279 285 305 312 313 314 309 305 298 296 293 296 296 294 289 301 315 320 341 347 357 4 7 18 29 27 30 33 33 35 36 34 34
247 248 249 251 254 258 256 249 261 263 276 280 291 302 305 306 306 299 295 291 288 289 289 291 278 291 297 295 311 325 344 351 353 356 7 15 19 23 25 26 27 28 27
243 246 246 251 253 258 255 245 246 262 277 272 281 293 293 299 300 296 292 288 287 284 286 285 279 284 289 288 296 307 329 341 339 341 345 351 1 7 15 15 18 19 19
242 242 244 246 250 256 251 245 242 246 261 270 280 291 294 293 297 297 289 289 288 283 279 281 282 278 283 285 288 295 303 322 328 326 327 335 344 351 1 5 7 7 10
243 248 244 245 249 256 254 248 246 248 254 255 275 284 295 301 299 299 293 290 286 284 280 282 281 278 279 278 285 287 293 303 316 318 317 319 329 339 347 353 355 359 1
246 244 245 244 249 254 255 246 245 246 251 255 266 276 284 295 300 304 301 291 290 290 283 278 281 283 278 278 279 282 287 293 302 311 313 317 319 328 334 338 345 349 352
251 244 245 249 252 251 250 250 248 248 252 262 261 267 271 282 289 296 300 304 294 293 287 287 283 278 279 279 279 279 282 287 293 303 311 308 311 320 324 330 336 340 343
249 245 245 250 251 248 253 256 256 253 252 257 262 264 270 272 284 290 294 298 300 302 302 290 285 285 282 274 277 276 276 279 285 295 306 306 301 306 312 322 328 331 337
249 246 246 250 251 251 254 251 258 258 253 254 262 265 269 272 274 279 285 291 296 299 300 302 295 285 283 282 278 275 277 273 277 286 295 303 303 300 304 313 323 326 331
253 251 250 250 254 254 252 252 258 256 259 257 262 263 265 270 271 275 278 280 286 292 295 299 298 296 290 285 280 278 277 277 274 281 288 296 300 299 297 306 313 319 324
254 254 253 253 256 256 255 255 260 260 260 263 266 266 269 275 272 271 275 278 282 286 290 297 297 298 299 294 288 281 279 278 274 278 284 292 296 298 295 299 306 313 319
255 255 255 255 256 258 257 254 258 261 261 265 268 269 269 271 273 272 273 276 277 281 285 292 294 297 297 296 295 289 286 284 283 280 285 290 292 294 291 296 302 310 315
257 256 257 256 258 259 258 256 258 263 263 264 269 271 271 273 273 272 271 270 273 276 282 285 291 291 293 297 297 294 291 289 287 285 285 288 290 290 290 294 299 306 314
257 257 257 257 259 261 261 261 263 265 267 267 269 269 275 273 272 273 274 272 272 277 280 284 288 291 292 295 297 298 294 290 289 287 287 288 288 289 291 295 300 307 313
259 259 259 260 261 263 263 265 265 267 268 271 271 272 274 274 272 271 274 273 274 277 279 280 285 289 290 292 294 296 295 293 290 288 288 289 288 289 290 293 298 305 310
261 261 261 262 263 264 266 266 267 268 268 271 273 273 275 275 271 269 275 275 274 276 279 281 284 287 287 289 289 293 291 294 293 291 290 289 290 292 294 294 300 303 308
261 260 261 262 264 267 267 267 269 270 270 271 273 274 273 269 271 272 272 274 274 273 278 283 284 283 284 287 291 291 292 293 293 292 289 291 293 293 294 295 299 304 305
260 258 261 264 266 268 269 271 271 274 273 273 274 271 271 275 275 278 275 275 276 276 282 282 283 284 289 288 288 289 289 291 293 299 293 296 297 293 294 294 297 304 308
260 261 264 266 269 270 272 273 271 273 276 276 276 274 278 278 277 276 278 276 276 278 279 282 284 290 290 293 290 290 289 292 297 299 297 297 303 298 303 301 300 304 308
265 267 271 272 273 277 276 272 272 272 276 280 281 283 283 282 280 277 280 281 282 282 283 283 289 293 294 295 293 295 290 293 296 299 297 299 305 308 311 310 311 312 314
275 273 271 276 284 286 287 275 272 277 278 284 286 286 286 287 283 281 282 283 286 286 284 290 293 296 298 301 298 289 289 292 301 303 301 297 305 308 312 316 316 317 320